Location: Unspecified
(0.0000°N, 0.0000°E)
Time: 02:57:56
(UTC+00:00)

CZ-3C DEB - Pass Details

Date: 21 February 2026
Orbit: 610 x 36841 km, 20.5° (Epoch: 4 October)

Event Time Altitude Azimuth Distance (km) Brightness Sun altitude
Exits shadow 02:07:02 16° 82° (E) 3,442 ? -59.9°
Drops below altitude 10° 02:09:54 10° 78° (ENE) 4,786 ? -59.2°
Sets 02:18:00 0° 73° (ENE) 8,315 ? -57.3°
